Stations météo

Publicité
Nimes-Garons, France (7646): Température de l'air & dewpoint: 15.07.2019 16:00:00 - 21.07.2019 16:00:00 (CEST)Nimes-Garons, France (7646): Vitesse du vent & gusts: 15.07.2019 16:00:00 - 21.07.2019 16:00:00 (CEST)Nimes-Garons, France (7646): Direction du vent: 15.07.2019 16:00:00 - 21.07.2019 16:00:00 (CEST)Nimes-Garons, France (7646): reduced air pressure: 15.07.2019 16:00:00 - 21.07.2019 16:00:00 (CEST)Nimes-Garons, France (7646): visibility: 15.07.2019 16:00:00 - 21.07.2019 16:00:00 (CEST)Nimes-Garons, France (7646): Quantités de précipitations: 15.07.2019 16:00:00 - 21.07.2019 16:00:00 (CEST)
Date & Time tt [°C] td [°C] ff [km/h] ff [knt] fx [km/h] fx [knt] dd ppp [hPa] vv [km] rr [mm]
21.07.2019 16:00:00 33,3 17,1 15 8 31 17 SSW 1019,2 51 0,0
21.07.2019 15:00:00 33,0 16,8 10 5 23 12 SSE 1019,4 55 0,0
21.07.2019 14:00:00 32,7 16,5 5 3 18 10 NW 1019,8 59 0,0
21.07.2019 13:00:00 31,6 15,5 6 3 19 11 W 1020,2 55 0,0
21.07.2019 12:00:00 28,7 16,6 7 4 20 11 NNW 1020,7 44 0,0
21.07.2019 11:00:00 27,9 18,0 5 3 13 7 NW 1020,7 53 0,0
21.07.2019 10:00:00 25,0 17,7 2 1 10 6 W 1021,1 27 0,0
21.07.2019 09:00:00 22,5 18,9 5 3 10 6 N 1021,0 16 0,0
21.07.2019 08:00:00 21,3 20,1 5 3 9 5 NNW 1020,5 6 0,0
21.07.2019 07:00:00 19,8 19,1 3 2 9 5 NNW 1020,6 7 0,0
21.07.2019 06:00:00 20,8 20,0 6 4 14 7 NE 1020,0 4,7 0,0
21.07.2019 05:00:00 20,7 19,5 11 6 21 11 E 1020,0 3,2 0,8
21.07.2019 04:00:00 20,6 19,3 8 5 13 7 SE 1020,1 8 0,0
21.07.2019 03:00:00 20,9 19,7 3 2 8 4 ESE 1020,3 7 0,0
21.07.2019 02:00:00 20,7 18,5 6 3 9 5 S 1020,4 13 0,0
21.07.2019 01:00:00 21,0 18,4 6 3 9 5 SSE 1020,3 18 0,0
21.07.2019 00:00:00 21,4 17,4 8 4 10 5 SSE 1020,0 25 0,0
20.07.2019 23:00:00 22,3 16,8 6 3 10 5 ESE 1019,5 34 0,0
20.07.2019 22:00:00 22,4 16,2 8 4 21 12 S 1019,2 35 0,0
20.07.2019 21:00:00 24,6 17,6 11 6 24 13 S 1018,4 34 0,0
20.07.2019 20:00:00 26,8 16,4 15 8 24 13 S 1017,8 41 0,0
20.07.2019 19:00:00 27,8 16,7 14 8 28 15 S 1017,8 50 0,0
20.07.2019 18:00:00 28,7 17,2 16 9 31 17 SSW 1017,7 52 0,0
20.07.2019 17:00:00 29,6 15,7 17 9 34 19 S 1017,5 42 0,0
20.07.2019 16:00:00 29,5 17,0 16 9 32 17 S 1017,7 20 0,0
20.07.2019 15:00:00 29,5 16,3 13 7 40 21 SSE 1017,7 20 0,0
20.07.2019 14:00:00 29,2 18,6 16 9 35 19 S 1017,5 50 0,0
20.07.2019 13:00:00 28,5 19,7 12 6 31 17 S 1017,9 12 0,0
20.07.2019 12:00:00 26,0 18,9 20 11 34 19 SE 1017,4 18 0,0
20.07.2019 11:00:00 25,2 18,4 5 3 17 9 ESE 1018,4 17 0,0
20.07.2019 10:00:00 24,5 19,6 9 5 21 11 WSW 1019,1 12 0,0
20.07.2019 09:00:00 23,3 19,0 6 4 13 7 ESE 1017,4 10 0,0
20.07.2019 08:00:00 21,6 17,0 8 4 14 7 E 1016,9 15 0,0
20.07.2019 07:00:00 20,6 18,4 9 5 19 11 SE 1016,6 9 0,0
20.07.2019 06:00:00 20,2 17,0 7 4 13 7 ESE 1016,4 16 0,0
20.07.2019 05:00:00 19,5 15,8 5 3 10 6 ESE 1016,3 17 0,0
20.07.2019 04:00:00 19,6 14,8 8 4 10 5 SE 1016,1 23 0,0
20.07.2019 03:00:00 19,8 15,6 6 4 16 9 SE 1016,0 21 0,0
20.07.2019 02:00:00 20,1 16,1 11 6 16 8 SE 1016,1 19 0,0
20.07.2019 01:00:00 20,5 16,5 10 5 17 9 SE 1016,0 26 0,0
20.07.2019 00:00:00 21,3 16,3 6 4 10 6 SE 1015,9 37 0,0
19.07.2019 23:00:00 21,3 15,6 7 4 14 7 S 1015,8 41 0,0
19.07.2019 22:00:00 22,0 14,6 9 5 22 12 S 1015,6 49 0,0
19.07.2019 21:00:00 25,3 14,1 10 6 27 15 SSW 1014,8 55 0,0
19.07.2019 20:00:00 27,9 11,9 16 8 31 17 S 1014,3 59 0,0
19.07.2019 19:00:00 29,8 10,8 17 9 33 18 SSW 1014,2 43 0,0
19.07.2019 18:00:00 30,6 12,5 16 9 37 20 SSW 1014,3 20 0,0
19.07.2019 17:00:00 31,3 13,1 22 12 36 19 S 1014,4 45 0,0
19.07.2019 16:00:00 31,9 13,2 23 12 42 23 S 1014,5 50 0,0
19.07.2019 15:00:00 32,2 12,4 16 9 37 20 SSW 1014,5 55 0,0
19.07.2019 14:00:00 32,3 10,3 8 4 23 12 SW 1014,9 59 0,0
19.07.2019 13:00:00 31,7 11,0 5 3 23 12 NNE 1015,2 20 0,0
19.07.2019 12:00:00 29,7 10,3 11 6 26 14 NNW 1015,6 60 0,0
19.07.2019 11:00:00 28,9 11,9 12 6 27 15 N 1015,9 60 0,0
19.07.2019 10:00:00 27,2 11,6 16 9 32 17 N 1016,0 57 0,0
19.07.2019 09:00:00 25,5 10,9 18 10 31 17 N 1015,9 60 0,0
19.07.2019 08:00:00 23,4 11,1 7 4 19 11 NW 1015,6 60 0,0
19.07.2019 07:00:00 21,2 10,7 11 6 20 11 NW 1015,5 45 0,0
19.07.2019 06:00:00 20,6 10,1 12 6 23 13 NNW 1015,2 59 0,0
19.07.2019 05:00:00 21,0 10,2 13 7 23 12 NW 1015,0 60 0,0
19.07.2019 04:00:00 21,2 10,4 11 6 21 11 NW 1014,8 60 0,0
19.07.2019 03:00:00 21,6 10,4 11 6 24 13 NW 1014,7 60 0,0
19.07.2019 02:00:00 22,3 10,4 11 6 21 12 NW 1014,5 60 0,0
19.07.2019 01:00:00 23,4 10,4 12 6 24 13 NNW 1014,2 60 0,0
19.07.2019 00:00:00 24,0 9,9 11 6 24 13 NW 1013,8 60 0,0
18.07.2019 23:00:00 25,6 9,8 13 7 28 15 NW 1013,3 60 0,0
18.07.2019 22:00:00 26,9 8,8 14 8 24 13 WNW 1012,6 60 0,0
18.07.2019 21:00:00 28,8 7,9 12 6 37 20 WNW 1011,8 60 0,0
18.07.2019 20:00:00 30,9 8,0 18 10 34 19 NW 1011,0 44 0,0
18.07.2019 19:00:00 32,8 7,6 19 11 38 21 W 1010,3 55 0,0
18.07.2019 18:00:00 33,7 9,0 9 5 27 15 NW 1010,5 55 0,0
18.07.2019 17:00:00 33,6 8,9 12 6 28 15 N 1010,7 52 0,0
18.07.2019 16:00:00 33,4 9,4 6 3 32 17 WSW 1010,9 49 0,0
18.07.2019 15:00:00 32,2 9,7 7 4 32 17 N 1011,2 41 0,0
18.07.2019 14:00:00 32,3 9,2 9 5 29 16 W 1011,6 36 0,0
18.07.2019 13:00:00 31,4 10,1 10 5 52 28 NNW 1012,0 28 0,0
18.07.2019 12:00:00 31,4 11,2 16 9 31 17 WNW 1012,4 49 0,0
18.07.2019 11:00:00 30,4 9,8 17 9 34 19 NNW 1012,4 46 0,0
18.07.2019 10:00:00 28,8 11,4 15 8 35 19 NW 1012,7 42 0,0
18.07.2019 09:00:00 27,2 11,6 15 8 27 15 NW 1012,7 42 0,0
18.07.2019 08:00:00 24,6 10,8 10 5 25 13 W 1012,5 50 0,0
18.07.2019 07:00:00 23,0 10,4 10 5 17 9 WNW 1012,2 49 0,0
18.07.2019 06:00:00 22,4 10,5 11 6 20 11 WNW 1011,8 57 0,0
18.07.2019 05:00:00 22,5 10,9 12 7 22 12 NW 1011,4 56 0,0
18.07.2019 04:00:00 22,9 11,0 9 5 22 12 NNW 1011,2 54 0,0
18.07.2019 03:00:00 22,6 11,9 12 6 23 12 NNW 1011,0 51 0,0
18.07.2019 02:00:00 23,2 13,1 11 6 18 10 NW 1011,0 45 0,0
18.07.2019 01:00:00 21,3 17,1 3 2 12 7 NW 1011,2 29 0,0
18.07.2019 00:00:00 23,2 17,2 10 6 19 10 NW 1011,1 37 0,0
17.07.2019 23:00:00 22,7 17,6 2 1 6 3 NW 1011,2 32 0,0
17.07.2019 22:00:00 23,5 17,7 6 4 18 10 WNW 1010,7 34 0,0
17.07.2019 21:00:00 25,6 17,5 11 6 26 14 SSE 1010,2 43 0,0
17.07.2019 20:00:00 28,4 15,3 16 8 35 19 SSW 1010,0 38 0,0
17.07.2019 19:00:00 30,8 12,7 21 11 42 23 SSW 1010,1 31 0,0
17.07.2019 18:00:00 30,3 11,3 21 11 39 21 S 1010,5 42 0,0
17.07.2019 17:00:00 32,3 10,9 24 13 42 23 S 1010,8 49 0,0
17.07.2019 16:00:00 33,1 10,4 14 7 36 19 SSW 1011,0 58 0,0
17.07.2019 15:00:00 32,9 11,4 14 7 34 18 SSW 1011,3 20 0,0
17.07.2019 14:00:00 32,5 9,3 8 4 28 15 S 1011,7 49 0,0
17.07.2019 13:00:00 31,3 9,5 10 6 22 12 N 1012,5 20 0,0
17.07.2019 12:00:00 30,3 9,8 7 4 22 12 NE 1012,9 52 0,0
17.07.2019 11:00:00 28,9 9,6 9 5 29 16 NNE 1013,3 32 0,0
17.07.2019 10:00:00 26,9 10,6 8 5 18 10 N 1013,7 60 0,0
17.07.2019 09:00:00 25,4 10,8 8 5 15 8 N 1013,8 58 0,0
17.07.2019 08:00:00 23,0 12,3 5 3 12 6 NNW 1013,7 44 0,0
17.07.2019 07:00:00 17,9 14,8 7 4 11 6 N 1013,5 26 0,0
17.07.2019 06:00:00 16,4 14,8 5 3 6 4 N 1013,6 26 0,0
17.07.2019 05:00:00 17,5 16,0 3 2 6 3 NNE 1013,3 19 0,0
17.07.2019 04:00:00 19,0 16,6 4 2 9 5 SE 1013,6 23 0,0
17.07.2019 03:00:00 19,9 16,5 6 3 9 5 E 1013,7 33 0,0
17.07.2019 02:00:00 19,5 15,4 2 1 8 5 SE 1014,1 42 0,0
17.07.2019 01:00:00 20,7 15,5 7 4 9 5 SSE 1014,2 47 0,0
17.07.2019 00:00:00 21,8 15,6 3 2 13 7 SSE 1014,5 54 0,0
16.07.2019 23:00:00 22,5 14,3 6 3 11 6 SW 1014,4 60 0,0
16.07.2019 22:00:00 23,1 14,9 5 3 20 11 S 1014,2 60 0,0
16.07.2019 21:00:00 25,0 16,7 13 7 28 15 SW 1013,8 57 0,0
16.07.2019 20:00:00 28,2 13,3 18 10 31 17 S 1013,3 44 0,0
16.07.2019 19:00:00 28,6 13,3 18 10 32 17 S 1013,3 46 0,0
16.07.2019 18:00:00 30,4 13,7 18 10 37 20 SSW 1013,1 45 0,0
16.07.2019 17:00:00 30,9 13,7 19 10 35 19 S 1013,3 20 0,0
16.07.2019 16:00:00 30,5 13,7 14 7 29 15 SSW 1013,6 56 0,0
16.07.2019 15:00:00 31,2 11,1 8 5 28 15 E 1013,7 60 0,0
16.07.2019 14:00:00 30,7 10,6 12 7 33 18 N 1014,0 59 0,0
16.07.2019 13:00:00 29,2 11,7 12 7 37 20 NE 1014,4 56 0,0
16.07.2019 12:00:00 28,2 11,7 17 9 37 20 NE 1014,6 58 0,0
16.07.2019 11:00:00 27,0 12,2 18 10 35 19 NNE 1014,7 60 0,0
16.07.2019 10:00:00 25,8 11,5 19 10 35 19 N 1014,9 60 0,0
16.07.2019 09:00:00 24,3 10,6 15 8 30 16 NNE 1014,8 49 0,0
16.07.2019 08:00:00 22,7 10,2 17 9 25 13 N 1014,8 48 0,0
16.07.2019 07:00:00 20,5 9,7 11 6 19 10 N 1014,3 18 0,0
16.07.2019 06:00:00 19,4 9,3 7 4 25 13 WNW 1014,1 60 0,0
16.07.2019 05:00:00 20,6 9,2 13 7 32 17 NW 1013,8 60 0,0
16.07.2019 04:00:00 21,6 9,8 22 12 40 22 N 1013,5 60 0,0
16.07.2019 03:00:00 21,6 9,5 12 6 39 21 NNW 1013,7 60 0,0
16.07.2019 02:00:00 22,5 9,6 19 11 34 19 N 1013,6 60 0,0
16.07.2019 01:00:00 23,1 9,8 16 9 34 18 NNW 1013,7 60 0,0
16.07.2019 00:00:00 23,6 9,9 19 11 36 20 N 1013,4 60 0,0
15.07.2019 23:00:00 24,3 9,8 23 13 44 24 N 1013,1 60 0,0
15.07.2019 22:00:00 24,6 10,5 17 9 39 21 N 1012,4 60 0,0
15.07.2019 21:00:00 25,7 10,7 23 13 55 30 N 1011,4 50 0,0
15.07.2019 20:00:00 27,3 10,5 31 17 60 33 N 1010,5 48 0,0
15.07.2019 19:00:00 28,2 10,4 31 17 67 36 N 1010,0 57 0,0
15.07.2019 18:00:00 28,0 10,2 32 18 67 36 NNE 1009,9 14 0,0
15.07.2019 17:00:00 28,2 10,4 36 20 75 41 N 1009,5 14 0,0
15.07.2019 16:00:00 28,5 10,2 42 23 77 42 N 1008,9 14 0,0

tt = Température de l'air
td = dewpoint
ff = Vitesse du vent
fx = gusts
dd = Direction du vent
ppp = reduced air pressure
vv = visibility
rr = Quantités de précipitations

stations d'obs. à proximité